{"data":{"norad_id":69179,"epoch":"2026-05-22T20:52:31.253952Z","epoch_age_seconds":252339,"freshness":"STALE","line1":"1 69179U 26112C   26142.86980618  .00129570  85042-5  14133-3 0  9998","line2":"2 69179  44.9083 325.1175 0286326 260.0946  96.7520 15.61899702    74","mean_motion":15.61899702,"eccentricity":0.0286326,"inclination_deg":44.9083,"raan_deg":325.1175,"arg_perigee_deg":260.0946,"mean_anomaly_deg":96.752,"bstar":0.00014133,"rev_number":7,"period_min":92.195420625031,"perigee_km":188.60475306365,"apogee_km":575.73508072087,"semimajor_km":6760.3069168923,"source":"CELESTRAK","updated_at":"2026-05-25T13:38:09.298162Z"}}